EW9663 Weather Reports


time (UTC)temp
C
wind
direction
speed
KPH
gust
KPH
rain 1hr
cm
rain 24hr
cm
rain mn
cm
humidity
%
barometer
mb
20200930183142 17 315 0.0 0.0 0.00 0.00 0.00 78 1018.2
20200930181702 17 326 0.0 0.0 0.00 0.00 0.00 79 1017.9
20200930180135 17 330 0.0 0.0 0.00 0.00 0.00 78 1017.9
20200930174624 17 325 0.0 0.0 0.00 0.00 0.00 78 1017.8
20200930173132 17 325 0.0 0.0 0.00 0.00 0.00 79 1017.7
20200930171600 17 320 0.0 0.0 0.00 0.00 0.00 79 1017.7
20200930170111 17 323 0.0 0.0 0.00 0.00 0.00 78 1017.7
20200930164551 18 318 0.0 0.0 0.00 0.00 0.00 78 1017.7
20200930163110 18 314 0.0 0.0 0.00 0.00 0.00 77 1017.6
20200930161711 18 325 0.0 0.0 0.00 0.00 0.00 76 1017.7
20200930160112 18 322 0.0 0.0 0.00 0.00 0.00 78 1017.7
20200930154620 18 317 0.0 0.0 0.00 0.00 0.00 77 1017.8
20200930153124 18 298 0.0 0.0 0.00 0.00 0.00 77 1017.7
20200930151615 18 319 0.0 0.0 0.00 0.00 0.00 78 1017.7
20200930150116 18 297 0.0 0.0 0.00 0.00 0.00 78 1017.7
20200930144710 19 317 0.0 0.0 0.00 0.00 0.00 75 1017.8
20200930143059 20 336 0.0 0.0 0.00 0.00 0.00 75 1017.8
20200930141617 20 320 0.0 0.0 0.00 0.00 0.00 74 1017.8
20200930140115 20 328 0.0 0.0 0.00 0.00 0.00 74 1017.9
20200930134616 20 299 0.0 0.0 0.00 0.00 0.00 73 1017.8
20200930133037 20 309 0.0 0.0 0.00 0.00 0.00 75 1017.8
20200930131543 19 304 0.0 0.0 0.00 0.00 0.00 77 1018.1
20200930130043 19 300 0.0 0.0 0.00 0.00 0.00 77 1018.1
20200930124539 20 24 0.0 0.0 0.00 0.00 0.00 76 1018.1
20200930123051 19 311 0.0 0.0 0.00 0.00 0.00 79 1018.3
20200930121524 19 339 0.0 0.0 0.00 0.00 0.00 78 1018.5
20200930120132 20 315 0.0 0.0 0.00 0.00 0.00 77 1018.6
20200930114533 20 347 0.0 0.0 0.00 0.00 0.00 77 1018.5
20200930113045 19 312 0.0 0.0 0.00 0.00 0.00 79 1018.6
20200930111541 18 299 0.0 0.0 0.00 0.00 0.00 79 1018.8
20200930110020 19 320 0.0 0.0 0.00 0.00 0.00 78 1018.9
20200930021524 13 331 0.0 0.0 0.00 0.00 0.00 92 1018.5
20200930020049 13 331 0.0 0.0 0.00 0.00 0.00 92 1018.6
20200930014525 14 331 0.0 0.0 0.00 0.00 0.00 92 1018.6
20200930013023 15 331 0.0 0.0 0.00 0.00 0.00 91 1018.6
20200930011529 15 331 0.0 0.0 0.00 0.00 0.00 92 1018.6
20200930010044 15 325 0.0 0.0 0.00 0.00 0.00 92 1018.5
20200930004537 15 317 0.0 0.0 0.00 0.00 0.00 91 1018.5
20200930003018 15 317 0.0 0.0 0.00 0.00 0.00 91 1018.6
20200930001520 14 317 0.0 0.0 0.00 0.00 0.00 91 1018.6
20200930000023 14 317 0.0 0.0 0.00 0.00 0.00 90 1018.6
20200929234513 15 317 0.0 0.0 0.00 0.00 0.00 90 1018.6
20200929233009 15 317 0.0 0.0 0.00 0.00 0.00 90 1018.5
20200929231847 15 317 0.0 0.0 0.00 0.00 0.00 90 1018.4
20200929230235 15 317 0.0 0.0 0.00 0.00 0.00 90 1018.5
20200929224624 15 317 0.0 0.0 0.00 0.00 0.00 90 1018.4
20200929223153 15 317 0.0 0.0 0.00 0.00 0.00 90 1018.4
20200929221628 16 317 0.0 0.0 0.00 0.00 0.00 90 1018.4
20200929220117 16 317 0.0 0.0 0.00 0.00 0.00 90 1018.4
20200929214644 16 317 0.0 0.0 0.00 0.00 0.00 90 1018.5
20200929213115 16 314 0.0 0.0 0.00 0.00 0.00 90 1018.5
20200929211620 16 314 0.0 0.0 0.00 0.00 0.00 90 1018.4
20200929210103 16 317 0.0 0.0 0.00 0.00 0.00 89 1018.3
20200929204603 16 318 0.0 0.0 0.00 0.00 0.00 89 1018.1
20200929203200 16 319 0.0 0.0 0.00 0.00 0.00 89 1018.1
20200929201721 16 340 0.0 0.0 0.00 0.00 0.00 89 1017.9
20200929200132 16 332 0.0 0.0 0.00 0.00 0.00 88 1017.8
20200929194549 16 319 0.0 0.0 0.00 0.00 0.00 87 1017.8
20200929193129 16 322 0.0 0.0 0.00 0.00 0.00 86 1017.7
20200929191550 16 311 0.0 0.0 0.00 0.00 0.00 85 1017.6
20200929190121 17 321 0.0 0.0 0.00 0.00 0.00 84 1017.4
20200929184709 17 332 0.0 0.0 0.00 0.00 0.00 83 1017.1